Conditions Actuelle
Partiellement Nuageux



Pression
29.94 (inHG) - 1013.88 (mb)
Visibilité

9.7 (km) - 6.0 (miles)
   Température
18  °C
Température
11  °C
Point de Rosée
64  %
 Humidité
   Vitesse du Vent
24  km/h
13  kts
15  mph
6.7  m/s
   Direction du Vent
N
45°
E
90°
135°
S
180°
225°
O
270°
315°
 240°

Ouest Sud
Ouest
   Données D'Aéroport
LFBG
Cognac-Châteaubernard (BA 709) Air Base
Metar :LFBG 151300Z AUTO 24013KT 210V270 9999 FEW034 SCT049 BKN066 18/11 Q1014
15-06-2024 15:00
   Informations de métar brut
Le METAR brut est le format le plus courant au monde pour la transmission de données météorologiques d'observation. Il est hautement standardisé par l’Organisation de l’aviation civile internationale (OACI), ce qui lui permet d’être compris dans la plupart des pays du monde.
   API Information
Données fournies par
https://www.checkwx.com/weather/LFBG

Météo aéronautique fournissant des rapports météorologiques METAR, TAF, AIRMET, SIGMET et OUTLOOK
   © Info
CSS/SVG/PHP les scripts ont été développés pa weather34.com pour une utilisation dans le modèle weather34 © 2015-2024

Informations sur le guide fournies par Metar-Wikipedia